Watonga, OK

5:15 PM CDT on August 30, 2016 (GMT -0500)
Watonga

Weather History for KJWG - January, 2013

Change the Weather History Date:

Monday, January 14, 2013

  Actual Average Record
Temperature  
Mean Temperature 26 °F -  
Max Temperature 33 °F 47 °F 72 °F (1990)
Min Temperature 18 °F 24 °F -1 °F (1979)
Degree Days  
Heating Degree Days 40    
Moisture  
Dew Point 16 °F    
Average Humidity 69    
Maximum Humidity 91    
Minimum Humidity 47    
Precipitation  
Precipitation 0.00 in - - ()
Sea Level Pressure  
Sea Level Pressure 30.34 in    
Wind  
Wind Speed 8 mph (NE)    
Max Wind Speed 14 mph    
Max Gust Speed 18 mph    
Visibility 10 miles    
Events      
Averages and records for this station are not official NWS values.
T = Trace of Precipitation, MM = Missing Value Source: NWS Daily Summary

Daily Weather History Graph

Daily Weather History Graph

Search for Another Location

Airport or City:

Trip Planner

Search our weather history database for the weather conditions in past years. The results will help you decide how hot, cold, wet, or windy it might be!

Date:

Astronomy

Jan. 14, 2013 Rise Set
Actual Time 7:43 AM CST 5:42 PM CST
Civil Twilight 7:15 AM CST 6:10 PM CST
Nautical Twilight 6:44 AM CST 6:42 PM CST
Astronomical Twilight 6:13 AM CST 7:12 PM CST
Moon 9:25 AM CST (1/14) 9:20 PM CST (1/14)
Length of Visible Light 10h 55m
Length of Day
9h 59m
Waxing Crescent, 11% of the Moon is Illuminated
Jan 14
Waxing Crescent
Jan 18
First Quarter
Jan 26
Full
Feb 3
Last Quarter
Feb 10
New

Hourly Weather History & Observations

Time (CST) Temp. Windchill Dew Point Humidity Pressure Visibility Wind Dir Wind Speed Gust Speed Precip Events Conditions
12:35 AM 18.1 °F 12.9 °F 15.8 °F 91% 30.36 in 10.0 mi NNE 3.5 mph - N/A   Clear
12:55 AM 19.0 °F 10.0 °F 14.0 °F 81% 30.35 in 10.0 mi NE 6.9 mph - N/A   Clear
1:15 AM 19.0 °F 9.0 °F 13.8 °F 80% 30.35 in 10.0 mi NNE 8.1 mph - N/A   Clear
1:35 AM 19.0 °F 10.0 °F 13.6 °F 79% 30.35 in 10.0 mi NNE 6.9 mph - N/A   Clear
1:55 AM 19.2 °F 9.3 °F 14.4 °F 81% 30.35 in 10.0 mi NNE 8.1 mph - N/A   Clear
2:15 AM 19.4 °F 10.4 °F 14.0 °F 80% 30.35 in 10.0 mi NNE 6.9 mph - N/A   Clear
2:35 AM 19.0 °F 10.0 °F 14.0 °F 81% 30.36 in 10.0 mi NNE 6.9 mph - N/A   Clear
2:55 AM 19.4 °F 11.5 °F 14.5 °F 81% 30.37 in 10.0 mi NNE 5.8 mph - N/A   Clear
3:15 AM 19.8 °F 10.8 °F 14.9 °F 81% 30.36 in 10.0 mi NNE 6.9 mph - N/A   Clear
3:35 AM 20.8 °F 12.1 °F 14.9 °F 78% 30.36 in 10.0 mi NNE 6.9 mph - N/A   Clear
4:15 AM 21.7 °F 14.3 °F 14.5 °F 74% 30.37 in 10.0 mi NE 5.8 mph - N/A   Clear
4:35 AM 21.4 °F 13.8 °F 14.5 °F 75% 30.38 in 10.0 mi NE 5.8 mph - N/A   Clear
4:55 AM 21.2 °F 13.6 °F 15.1 °F 77% 30.37 in 10.0 mi NE 5.8 mph - N/A   Clear
5:15 AM 20.8 °F 12.1 °F 15.3 °F 79% 30.36 in 10.0 mi NE 6.9 mph - N/A   Clear
5:35 AM 20.3 °F 12.5 °F 14.9 °F 80% 30.36 in 10.0 mi NNE 5.8 mph - N/A   Clear
5:55 AM 19.4 °F 9.5 °F 14.7 °F 82% 30.36 in 10.0 mi NNE 8.1 mph - N/A   Clear
6:15 AM 20.1 °F 11.3 °F 14.7 °F 80% 30.36 in 10.0 mi NNE 6.9 mph - N/A   Clear
6:35 AM 19.8 °F 10.8 °F 15.1 °F 82% 30.37 in 10.0 mi North 6.9 mph - N/A   Clear
6:55 AM 19.2 °F 12.5 °F 14.9 °F 83% 30.38 in 10.0 mi North 4.6 mph - N/A   Clear
7:15 AM 19.0 °F 11.1 °F 14.9 °F 84% 30.39 in 10.0 mi NNE 5.8 mph - N/A   Clear
7:35 AM 19.8 °F 9.9 °F 15.1 °F 82% 30.40 in 10.0 mi NNE 8.1 mph - N/A   Clear
7:55 AM 20.1 °F 11.3 °F 15.1 °F 81% 30.41 in 10.0 mi North 6.9 mph - N/A   Clear
8:15 AM 19.8 °F 10.8 °F 15.1 °F 82% 30.41 in 10.0 mi NNE 6.9 mph - N/A   Clear
8:35 AM 20.3 °F 10.6 °F 15.1 °F 80% 30.41 in 10.0 mi NNE 8.1 mph - N/A   Scattered Clouds
8:55 AM 21.0 °F 9.3 °F 15.4 °F 79% 30.40 in 10.0 mi NNE 11.5 mph - N/A   Scattered Clouds
9:15 AM 22.1 °F 10.6 °F 15.6 °F 76% 30.40 in 10.0 mi NE 11.5 mph - N/A   Mostly Cloudy
9:35 AM 23.0 °F 11.7 °F 16.2 °F 75% 30.40 in 10.0 mi NNE 11.5 mph - N/A   Scattered Clouds
9:55 AM 23.0 °F 11.7 °F 16.3 °F 76% 30.40 in 10.0 mi NNE 11.5 mph - N/A   Mostly Cloudy
10:15 AM 23.7 °F 13.3 °F 16.2 °F 73% 30.41 in 10.0 mi NE 10.4 mph - N/A   Scattered Clouds
10:35 AM 24.8 °F 14.0 °F 16.3 °F 70% 30.40 in 10.0 mi NE 11.5 mph - N/A   Clear
10:55 AM 25.9 °F 14.8 °F 15.8 °F 66% 30.39 in 10.0 mi NE 12.7 mph - N/A   Scattered Clouds
11:15 AM 26.4 °F 16.0 °F 15.4 °F 63% 30.39 in 10.0 mi NE 11.5 mph - N/A   Clear
11:35 AM 27.1 °F 15.9 °F 16.3 °F 64% 30.39 in 10.0 mi NE 13.8 mph - N/A   Mostly Cloudy
11:55 AM 28.2 °F 18.3 °F 17.1 °F 63% 30.38 in 10.0 mi ENE 11.5 mph - N/A   Mostly Cloudy
12:15 PM 29.1 °F 18.4 °F 16.7 °F 60% 30.36 in 10.0 mi NE 13.8 mph - N/A   Mostly Cloudy
12:35 PM 29.7 °F 20.7 °F 16.3 °F 58% 30.36 in 10.0 mi NE 10.4 mph - N/A   Mostly Cloudy
12:55 PM 30.6 °F 20.2 °F 15.1 °F 53% 30.34 in 10.0 mi NE 13.8 mph - N/A   Scattered Clouds
1:15 PM 30.9 °F 21.2 °F 15.6 °F 53% 30.33 in 10.0 mi NE 12.7 mph 18.4 mph N/A   Scattered Clouds
2:15 PM 32.2 °F 23.8 °F 15.6 °F 51% 30.30 in 10.0 mi NE 10.4 mph - N/A   Clear
2:35 PM 32.7 °F 23.4 °F 14.7 °F 48% 30.30 in 10.0 mi ENE 12.7 mph - N/A   Clear
2:55 PM 32.9 °F 23.2 °F 16.0 °F 50% 30.29 in 10.0 mi NE 13.8 mph - N/A   Clear
3:15 PM 33.1 °F 23.4 °F 14.9 °F 47% 30.29 in 10.0 mi ENE 13.8 mph - N/A   Clear
3:35 PM 32.9 °F 23.7 °F 15.4 °F 49% 30.29 in 10.0 mi NE 12.7 mph - N/A   Clear
3:55 PM 32.9 °F 23.7 °F 15.4 °F 49% 30.29 in 10.0 mi NE 12.7 mph - N/A   Clear
4:15 PM 32.9 °F 24.1 °F 15.6 °F 49% 30.30 in 10.0 mi NE 11.5 mph - N/A   Clear
4:35 PM 33.1 °F 24.4 °F 15.8 °F 49% 30.30 in 10.0 mi ENE 11.5 mph - N/A   Clear
4:55 PM 32.2 °F 23.8 °F 14.9 °F 49% 30.30 in 10.0 mi ENE 10.4 mph - N/A   Clear
5:15 PM 31.1 °F 23.1 °F 16.5 °F 55% 30.30 in 10.0 mi ENE 9.2 mph - N/A   Clear
5:35 PM 31.1 °F 24.5 °F 18.0 °F 58% 30.30 in 10.0 mi NE 6.9 mph - N/A   Mostly Cloudy
5:55 PM 30.7 °F 23.3 °F 17.4 °F 58% 30.30 in 10.0 mi ENE 8.1 mph - N/A   Overcast
6:15 PM 30.4 °F 22.9 °F 17.2 °F 58% 30.30 in 10.0 mi NE 8.1 mph - N/A   Overcast
6:35 PM 29.8 °F 23.9 °F 17.8 °F 61% 30.31 in 10.0 mi NE 5.8 mph - N/A   Overcast
6:55 PM 28.9 °F 22.8 °F 18.5 °F 65% 30.31 in 10.0 mi NE 5.8 mph - N/A   Overcast
7:15 PM 28.4 °F 22.2 °F 18.5 °F 66% 30.31 in 10.0 mi NNE 5.8 mph - N/A   Overcast
7:35 PM 27.9 °F 21.5 °F 18.0 °F 66% 30.31 in 10.0 mi NNE 5.8 mph - N/A   Overcast
7:55 PM 27.3 °F 19.9 °F 18.1 °F 68% 30.31 in 10.0 mi NNE 6.9 mph - N/A   Overcast
8:15 PM 27.3 °F 19.9 °F 18.1 °F 68% 30.31 in 10.0 mi NNE 6.9 mph - N/A   Overcast
8:35 PM 26.6 °F 19.1 °F 17.8 °F 69% 30.30 in 10.0 mi NE 6.9 mph - N/A   Mostly Cloudy
8:55 PM 26.1 °F 19.4 °F 18.5 °F 73% 30.30 in 10.0 mi NE 5.8 mph - N/A   Overcast
9:15 PM 27.5 °F 21.1 °F 18.5 °F 69% 30.30 in 10.0 mi ENE 5.8 mph - N/A   Overcast
9:35 PM 28.2 °F 21.0 °F 18.5 °F 67% 30.29 in 10.0 mi ENE 6.9 mph - N/A   Overcast
9:55 PM 28.0 °F 20.0 °F 18.9 °F 68% 30.28 in 10.0 mi ENE 8.1 mph - N/A   Overcast
10:15 PM 28.2 °F 21.0 °F 18.7 °F 67% 30.29 in 10.0 mi ENE 6.9 mph - N/A   Overcast
10:35 PM 28.2 °F 22.0 °F 18.9 °F 68% 30.30 in 10.0 mi ENE 5.8 mph - N/A   Overcast
10:55 PM 28.0 °F 21.7 °F 19.4 °F 70% 30.30 in 10.0 mi NE 5.8 mph - N/A   Overcast
11:15 PM 27.1 °F 18.9 °F 19.2 °F 72% 30.30 in 10.0 mi NNE 8.1 mph - N/A   Overcast
11:35 PM 26.6 °F 19.1 °F 19.4 °F 74% 30.30 in 10.0 mi NNE 6.9 mph - N/A   Overcast
11:55 PM 26.6 °F 17.5 °F 18.5 °F 71% 30.29 in 10.0 mi NNE 9.2 mph - N/A   Overcast